Location: Newark
(35.7127°N, 139.7618°E)
Time: 03:35:21
(UTC+00:00)

N. Korean satellite - Pass Details

Date: 13 August 2020
Orbit: 455 x 503 km, 97.2° (Epoch: 22 September)

Event Time Altitude Azimuth Distance (km) Brightness Sun altitude
Rises 19:26:35 0° 29° (NNE) 2,538 11.2 -7.0°
Reaches altitude 10° 19:29:04 10° 48° (NE) 1,664 10.7 -6.5°
Maximum altitude 19:31:43 19° 95° (E) 1,202 9.6 -6.0°
Drops below altitude 10° 19:34:21 10° 143° (SE) 1,674 9.5 -5.5°
Sets 19:36:52 0° 161° (SSE) 2,559 10.2 -5.1°
